Hourly Data Report for April 30, 2021

OTTAWA INTL A
ONTARIO
Current Station Operator: NAVCAN

45°19'00.000" N
75°40'00.000" W
114.90 m
6106001
71628
YOW

Download Data

Hourly Data (April 2021)
Hourly Data Report for April 30, 2021
TIME
LST
Temp Definition
°C
Dew Point Definition
°C
Rel Hum Definition
%
Precip. Amount Definition
mm

Wind Dir Definition
10's deg

Wind Spd Definition
km/h
Visibility Definition
km
Stn Press Definition
kPa
Hmdx Definition


Wind Chill Definition


Weather Definition


00:00 10.7 8.8 89   31 12 16.1 98.36     Rain
01:00 10.1 8.8 92   31 9 16.1 98.26     Rain
02:00 9.8 8.8 94   26 12 16.1 98.20     Rain
03:00 10.0 9.2 95   29 16 12.9 98.16     Rain
04:00 9.8 9.2 96   27 19 12.9 98.10     Rain
05:00 9.6 9.0 96   28 21 9.7 98.10     Rain, Fog
06:00 9.7 9.1 96   29 19 12.9 98.11     Rain
07:00 9.9 9.2 96   29 21 16.1 98.10     Rain
08:00 10.1 9.3 94   29 19 16.1 98.09     Rain
09:00 10.3 9.3 94   29 23 9.7 98.08     Rain, Fog
10:00 10.4 9.3 93   30 26 12.9 98.08     Rain
11:00 10.1 9.2 94   29 21 9.7 98.08     Rain, Fog
12:00 9.7 8.7 93   28 20 12.9 98.12     Rain
13:00 6.7 5.2 90   28 50 9.7 98.20     Rain, Fog
14:00 2.9 1.8 93   28 41 16.1 98.32     Rain
15:00 1.8 0.7 92   28 39 16.1 98.43     Rain
16:00 0.9 0.0 94   28 37 6.4 98.53     Snow
17:00 0.4 -0.3 95   28 26 2.4 98.67     Snow
18:00 0.4 -0.2 96   28 26 1.2 98.73     Snow
19:00 1.0 0.2 95   28 31 24.1 98.79     Rain, Snow
20:00 1.7 0.8 94   28 31 24.1 98.87     Rain
21:00 2.7 0.8 87   30 30 24.1 98.99     Rain
22:00 2.5 -1.2 77   31 28 24.1 99.14     Mostly Cloudy
23:00 2.5 -1.9 73   33 32 24.1 99.23     LegendNANA

Notes on Data Quality.

Legend

  • E = Estimated
  • M = Missing
  • NA = Not Available*
  • [empty] = Indicates an unobserved value
Date modified: